To NAV CANADA Home Page Login to a new session Search on AWWS site Feedback and Comments Disclaimer Vers la page française équivalente Tips FAQ What's new on the site To the Forecasts and Observations / NOTAM section To "File a Flight Plan" website Publications and other links Update of the User's profile FIC Telephone Numbers My Weather Data Folder Route Weather Data Regional Weather Data Local Weather Data To the Forecasts and Observations / NOTAM section
Request Generated 07/01/2015 at 16:53:12 UTC . Weather information available at that time is displayed.

METAR/TAF

FLIN FLON/MB    

METAR CYFO 011600Z 06006KT 030V100 5SM FU OVC030 22/13 A2990 RMK ST8
SLP126 DENSITY ALT 2000FT=
METAR CYFO 011500Z 05006KT 5SM FU OVC025 21/14 A2990 RMK ST8 SLP126
DENSITY ALT 1800FT=
METAR CYFO 011400Z 04006KT 360V060 4SM FU OVC025 18/15 A2990 RMK ST8
SLP128 DENSITY ALT 1600FT=

CYFO - No TAF is issued for this station

Your time UTC time
Weather data provided by Environment Canada and NAV CANADA